Regional Weather Roundup
Issued by NWS

Home | Current Version | Previous Version | Graphics & Text | Print | Product List | Glossary On
Versions: 1 2 3 4 5 6 7 8 9 10 11 12 13 14 15 16 17 18 19 20 21 22 23 24 25 26 27 28 29 30 31 32 33 34 35 36 37 38 39 40 41 42 43 44 45 46 47 48 49 50
000
ASUS45 KTFX 190419
RWRMT
MONTANA HOURLY WEATHER ROUNDUP
NATIONAL WEATHER SERVICE GREAT FALLS MT
1019 PM MDT THU SEP 18 2014

NOTE: "FAIR" INDICATES FEW OR NO CLOUDS BELOW 12000 FEET WITH NO
SIGNIFICANT WEATHER AND/OR OBSTRUCTIONS TO VISIBILITY.

* THESE STATIONS ARE NOT UNDER NWS QUALITY CONTROL. THEY DO NOT
   REPORT WEATHER SUCH AS PRECIPITATION OR FOG.

MTZ001>007-043-190500-
WEST OF THE DIVIDE
CITY           SKY/WX    TMP DP  RH WIND       PRES   REMARKS
KALISPELL      CLOUDY    61  45  56 S6        29.78R
MISSOULA       MOCLDY    63  43  48 W6        29.85R
BUTTE          PTCLDY    54  45  72 S3        29.94R
MULLAN PASS    CLOUDY    52  43  72 W8        29.96R
* ESSEX        N/A       61  39  44 VRB5       N/A
* LINCOLN      N/A       63  39  41 S4         N/A
* LOOKOUT PASS N/A       59  44  58 SE8G14     N/A
* POLSON       N/A       65  42  43 S2G8       N/A
* RONAN APT    MOCLDY    64  43  47 N/A        N/A
* SEELEY LAKE  N/A       61  43  52 E1         N/A
* THOMP F APT  MOCLDY    72  43  35 SW6        N/A
$$

MTZ008-052>055-190500-
SOUTHWEST MONTANA
CITY           SKY/WX    TMP DP  RH WIND       PRES   REMARKS
BOZEMAN        MOCLDY    54  52  93 SE6       29.85S
DILLON         PTCLDY    54  46  74 S6        29.89R
W YELLOWSTONE  LGT RAIN  54  50  86 E8        30.05R
* THREE FORKS  PTCLDY    63  63 100 N/A        N/A
* BOULDER HILL N/A       53  45  74 SW4        N/A
* MONIDA PASS  N/A       54  53  96 SE8        N/A
* RAYNOLDS PAS N/A       50  34  54 SE13G19    N/A
* WHITEHALL    N/A       62  51  67 NW7G15     N/A
* WISE RIVER   N/A       59  40  50 W3G14      N/A
$$

MTZ009>010-012-014-046-048-049-054-190500-
EAST SLOPES AND CENTRAL MONTANA
CITY           SKY/WX    TMP DP  RH WIND       PRES   REMARKS
CUT BANK       PTCLDY    61  41  48 W12       29.74S
GREAT FALLS    CLEAR     61  45  56 W9        29.75R
HELENA         PTCLDY    61  52  72 W6        29.82R
MALMSTROM AFB  MOCLDY    66  45  47 SW10      29.76R
* CONRAD       PTCLDY    55  48  77 N/A        N/A
* EAST GLACIER N/A       63  39  41 NW4G17     N/A
* MONARCH      N/A       59  43  56 S8         N/A
* PENDROY      N/A       58  40  51 W2         N/A
* ROGERS PASS  N/A       56  40  55 NW2        N/A
* SAINT MARY   N/A       64  40  41 SW9G21     N/A
* SWEET GRASS  N/A       63  39  41 W14G19     N/A
* WHITE SULPH  N/A       59  49  70 SW5G13     N/A
$$

MTZ011-013-016-021-035-040-045-047-050-051-190500-
NORTH CENTRAL MONTANA
CITY           SKY/WX    TMP DP  RH WIND       PRES   REMARKS
HAVRE          LGT RAIN  64  50  61 SW8       29.64R
LEWISTOWN      CLOUDY    63  48  58 SW14      29.77S
* CHINOOK      PTCLDY    63  52  68 CALM      29.63R
* CHESTER      N/A       70  36  29 W17G27     N/A
* DENTON       N/A       58  50  75 SW6        N/A
* GEYSER       N/A       58  46  65 SW4        N/A
* JUDITH GAP   N/A       63  53  70 W13        N/A
* LOMA         N/A       70  45  41 SW7G12     N/A
$$

MTZ017>020-022>027-061-062-190500-
NORTHEAST MONTANA
CITY           SKY/WX    TMP DP  RH WIND       PRES   REMARKS
GLASGOW        MOCLDY    68  52  57 S6        29.62S
GLENDIVE       CLOUDY    72  55  55 SW17      29.69S
JORDAN         CLOUDY    63  55  75 W3        29.68R
SIDNEY         CLOUDY    61  54  78 S8        29.65R
WOLF POINT     CLOUDY    61  54  78 W7        29.62R
* BEAVER HILL  N/A       69  53  57 SW12G17    N/A
* CIRCLE       N/A       68  54  61 N/A        N/A
* LINDSAY DVD  N/A       67  53  61 SW6G11     N/A
* NAVAJO       N/A       66  52  61 W16        N/A
* SACO         N/A       64  52  65 S6         N/A
$$

MTZ028>042-056>058-190500-
SOUTHCENTRAL AND SOUTHEAST MONTANA
CITY           SKY/WX    TMP DP  RH WIND       PRES   REMARKS
BAKER          CLOUDY    72  52  49 SW15      29.78R
BILLINGS       CLOUDY    64  54  70 SW12      29.79S
LIVINGSTON     CLOUDY    63  48  58 W3        29.84F
MILES CITY     CLOUDY    72  54  53 S9        29.74R
* LAUREL APT   CLOUDY    63  52  68 SW6        N/A
* ROUNDUP APT  CLOUDY    64  52  65 S5         N/A
* ALZADA       N/A       69  54  59 NW16G21    N/A
* HYSHAM       N/A       63  53  70 W9         N/A
* LAME DEER    N/A       59  55  87 SW4        N/A
* REED POINT   N/A       58  55  90 N/A        N/A
* ROSCOE HILL  N/A       60  46  60 SW4G9      N/A
$$

REGIONAL REPORTS...DAKOTAS
CITY           SKY/WX    TMP DP  RH WIND       PRES   REMARKS
WILLISTON      CLOUDY    66  54  65 S5        29.60R
DICKINSON      CLOUDY    68  61  78 SW10      29.68R
BEACH          N/A       68  52  57 SW12      29.72R
CROSBY         CLEAR     61  55  81 S10       29.57R
TIOGA          CLEAR     61  52  72 S6        29.63S
WATFORD CITY   CLEAR     64  52  65 SW8       29.60F
BISMARCK       CLOUDY    68  63  84 E9        29.66F
GRAND FORKS    CLOUDY    70  57  64 S22G28    29.69S
FARGO          CLOUDY    68  55  63 S17G23    29.76F
BUFFALO SD     MOCLDY    70  57  64 NW25G46   29.73R
RAPID CITY     MOCLDY    72  54  53 S10       29.72F
$$

REGIONAL REPORTS...WYOMING/IDAHO/WASHINGTON
CITY           SKY/WX    TMP DP  RH WIND       PRES   REMARKS
GILLETTE       CLOUDY    70  48  46 N24G31    29.87R
SHERIDAN       CLOUDY    63  54  73 W9        29.91R
CODY           CLOUDY   N/A N/A N/A N/A        N/A
YELLOWSTONE LA CLOUDY    50  48  93 CALM      30.13F
SALMON         PTCLDY    55  48  77 S3        29.86R
MULLAN PASS    CLOUDY    52  43  72 W8        29.96S
SAND POINT     CLOUDY    61  54  78 CALM      29.79R
SPOKANE        CLOUDY    70  46  42 SW12      29.81R
$$

REGIONAL REPORTS...ALBERTA
CITY           SKY/WX    TMP DP  RH WIND       PRES   REMARKS
CALGARY        MOCLDY    57  50  78 VRB2      29.66R
LETHBRIDGE     MOCLDY    63  48  58 W24G30    29.67S
MEDICINE HAT   MOCLDY    70  45  41 W21G28    29.58R
EDMONTON       PTCLDY    50  46  86 S5        29.59S
WATERTON GATE  N/A       61  45  56 SW14G28    N/A
CARDSTON       N/A       63  45  52 W14G24     N/A
MILK RIVER     N/A       61  43  52 W9         N/A
$$

REGIONAL REPORTS...SASKATCHEWAN
CITY           SKY/WX    TMP DP  RH WIND       PRES   REMARKS
SWIFT CURRENT  PTCLDY    59  50  72 SW10      29.56R
REGINA         MOCLDY    61  55  81 W6        29.53R
VAL MARIE      N/A       61  50  67 SW9        N/A
ASSINIBOIA     N/A       63  50  63 SW10       N/A
CORONACH       N/A       66  52  61 SW8        N/A

$$




USA.gov is the U.S. government's official web portal to all federal, state and local government web resources and services.